EW6674 Weather Reports


Display with metric or nautical units.
time (UTC)temp
F
wind
direction
speed
MPH
gust
MPH
rain 1hr
in
rain 24hr
in
rain mn
in
humidity
%
barometer
mb
20260507193028 60 44 1.0 3.0 0.00 0.02 0.02 84 1012.8
20260507191519 60 44 2.0 3.0 0.00 0.02 0.02 83 1012.5
20260507190019 61 45 0.0 3.0 0.00 0.02 0.02 81 1012.3
20260507184516 61 45 0.0 2.0 0.00 0.02 0.02 80 1012.0
20260507183028 62 45 0.0 1.0 0.00 0.02 0.02 80 1012.0
20260507181513 62 45 0.0 3.0 0.00 0.02 0.02 80 1011.8
20260507180016 62 32 3.0 8.0 0.00 0.02 0.02 80 1011.5
20260507174512 63 24 5.0 10.0 0.00 0.02 0.02 79 1011.5
20260507173010 64 38 6.0 10.0 0.00 0.02 0.02 76 1011.4
20260507171510 64 41 1.0 5.0 0.00 0.02 0.02 77 1011.5
20260507170008 65 123 2.0 7.0 0.00 0.02 0.02 75 1011.5
20260507164509 65 113 2.0 7.0 0.00 0.02 0.02 74 1011.4
20260507163006 65 98 3.0 10.0 0.01 0.02 0.02 77 1011.2
20260507161507 64 107 4.0 10.0 0.01 0.02 0.02 81 1011.2
20260507160014 63 71 1.0 6.0 0.01 0.02 0.02 81 1011.5
20260507154504 65 344 9.0 13.0 0.01 0.06 0.02 74 1011.3
20260507153002 66 173 2.0 5.0 0.00 0.05 0.01 68 1011.0
20260507151501 67 163 5.0 10.0 0.00 0.05 0.01 65 1010.7
20260507144604 69 159 6.0 13.0 0.00 0.05 0.01 61 1010.0
20260507143110 71 185 9.0 14.0 0.00 0.05 0.01 56 1010.0
20260507141621 72 168 8.0 14.0 0.00 0.05 0.01 53 1010.0
20260507140058 73 198 7.0 17.0 0.00 0.05 0.01 57 1009.9
20260507134605 72 184 7.0 13.0 0.00 0.05 0.01 54 1010.0
20260507133106 73 195 8.0 16.0 0.00 0.05 0.01 57 1009.9
20260507131611 72 189 10.0 18.0 0.00 0.05 0.01 62 1010.0
20260507130057 72 161 11.0 17.0 0.00 0.05 0.01 62 1010.0
20260507124556 72 151 7.0 15.0 0.00 0.06 0.01 65 1009.9
20260507123111 73 116 8.0 15.0 0.00 0.06 0.01 63 1010.1
20260507121552 74 171 6.0 14.0 0.00 0.06 0.01 54 1010.1
20260507120052 74 187 7.0 12.0 0.00 0.06 0.01 59 1010.1
20260507114555 74 173 7.0 10.0 0.00 0.06 0.01 59 1010.2
20260507113047 74 200 6.0 15.0 0.00 0.06 0.01 65 1010.4
20260507111543 73 140 5.0 10.0 0.00 0.06 0.01 55 1010.5
20260507110041 73 200 5.0 10.0 0.00 0.06 0.01 59 1010.5
20260507104541 72 207 3.0 7.0 0.01 0.13 0.01 60 1010.6
20260507103040 73 201 5.0 11.0 0.01 0.13 0.01 61 1010.9
20260507101538 73 217 5.0 8.0 0.01 0.13 0.01 64 1010.9
20260507100045 72 222 1.0 9.0 0.01 0.13 0.01 64 1010.9
20260507094533 70 186 2.0 9.0 0.00 0.13 0.00 67 1010.8
20260507093028 69 176 4.0 10.0 0.00 0.13 0.00 72 1010.7
20260507091533 69 148 3.0 9.0 0.00 0.13 0.00 69 1010.7
20260507090025 69 188 6.0 10.0 0.00 0.13 0.00 71 1010.7
20260507084522 68 176 2.0 6.0 0.00 0.14 0.00 73 1010.6
20260507083021 69 178 4.0 10.0 0.00 0.14 0.00 73 1010.7
20260507081517 68 171 4.0 7.0 0.00 0.14 0.00 75 1010.5
20260507080015 67 178 2.0 5.0 0.00 0.14 0.00 77 1010.5
20260507074511 66 183 2.0 5.0 0.00 0.16 0.00 83 1010.4
20260507073007 64 182 1.0 5.0 0.00 0.16 0.00 81 1010.4
20260507071503 63 182 0.0 4.0 0.00 0.16 0.00 61 1010.3
20260507070105 61 103 3.0 7.0 0.00 0.16 0.00 58 1010.2
20260507064631 60 58 1.0 3.0 0.00 0.21 0.00 59 1010.2
20260507063112 60 66 1.0 4.0 0.00 0.21 0.00 60 1010.2
20260507061554 59 67 1.0 4.0 0.00 0.21 0.00 60 1010.0
20260507060110 58 67 2.0 4.0 0.00 0.21 0.00 62 1009.9
20260507054557 58 67 1.0 4.0 0.00 0.24 0.00 63 1009.9
20260507053053 58 74 1.0 4.0 0.00 0.24 0.00 63 1009.5
20260507051601 58 53 2.0 4.0 0.00 0.24 0.00 63 1009.4
20260507050048 58 52 3.0 5.0 0.00 0.24 0.00 64 1009.3
20260507044543 57 66 1.0 4.0 0.00 0.24 0.00 65 1009.2
20260507043042 56 69 2.0 3.0 0.00 0.24 0.00 67 1009.0
20260507041536 56 69 2.0 4.0 0.00 0.24 0.00 67 1008.9
20260507040033 57 71 2.0 3.0 0.00 0.24 0.00 68 1008.9
20260507034534 57 71 0.0 2.0 0.00 0.24 0.00 68 1008.8
20260507033031 57 71 0.0 2.0 0.00 0.24 0.00 68 1008.7
20260507031533 58 71 0.0 3.0 0.00 0.24 0.00 68 1008.7
20260507030030 58 71 1.0 3.0 0.00 0.24 0.00 67 1008.7
20260507024528 58 71 2.0 3.0 0.00 0.24 0.00 67 1008.7
20260507023025 59 67 2.0 4.0 0.00 0.24 0.00 66 1008.8
20260507021524 59 51 2.0 3.0 0.00 0.24 0.00 67 1008.7
20260507020022 59 49 1.0 4.0 0.00 0.24 0.00 68 1008.6
20260507014521 59 135 1.0 3.0 0.00 0.24 0.00 68 1008.6
20260507013023 60 135 0.0 2.0 0.00 0.24 0.00 69 1008.7
20260507011519 60 135 1.0 2.0 0.00 0.24 0.00 70 1008.7
20260507010021 60 135 0.0 2.0 0.00 0.24 0.00 71 1008.7
20260507004518 60 135 1.0 2.0 0.00 0.24 0.00 71 1008.7
20260507003015 60 135 0.0 3.0 0.00 0.24 0.00 72 1008.8
20260507001516 60 135 0.0 3.0 0.00 0.24 0.00 73 1008.8
20260507000011 60 135 1.0 3.0 0.00 0.24 0.00 74 1008.9
20260506234511 60 135 0.0 3.0 0.00 0.24 0.00 74 1008.9
20260506233012 61 135 1.0 3.0 0.00 0.24 0.00 75 1009.0
20260506231507 61 136 0.0 2.0 0.00 0.24 0.00 76 1009.1
20260506230017 61 136 1.0 3.0 0.00 0.24 0.00 77 1009.1
20260506224505 61 135 2.0 4.0 0.00 0.25 0.00 78 1009.1
20260506223003 60 135 3.0 5.0 0.00 0.25 0.00 80 1009.0
20260506221502 60 161 4.0 5.0 0.00 0.25 0.00 81 1009.1
20260506220133 60 165 3.0 5.0 0.00 0.25 0.00 83 1009.0
20260506214600 60 166 2.0 3.0 0.00 0.27 0.25 83 1009.0
20260506213111 60 165 0.0 3.0 0.00 0.27 0.25 83 1009.1
20260506211600 60 166 1.0 3.0 0.00 0.27 0.25 83 1009.1
20260506210106 60 165 1.0 5.0 0.00 0.27 0.25 82 1009.1
20260506204606 60 157 1.0 6.0 0.00 0.27 0.25 81 1009.2
20260506203057 60 195 2.0 4.0 0.00 0.27 0.25 79 1009.2
20260506201557 60 197 3.0 7.0 0.00 0.27 0.25 78 1009.2
20260506200056 61 177 2.0 5.0 0.00 0.27 0.25 75 1009.1
20260506194556 61 182 1.0 2.0 0.00 0.27 0.25 74 1008.8